Weather Roundup
Issued by NWS

Home | Current Version | Previous Version | Text Only | Print | Product List | Glossary On
Versions: 1 2 3 4 5 6 7 8 9 10 11 12 13 14 15 16 17 18 19 20 21 22 23 24 25 26 27 28 29 30 31 32 33 34 35 36 37 38 39 40 41 42 43 44 45 46 47 48 49 50
000
NZUS93 KARX 202059
HRRWXR

CURRENT HOURLY OBSERVATIONS ACROSS
MUCH OF THE UPPER MISSISSIPPI VALLEY
NATIONAL WEATHER SERVICE LA CROSSE WI
300 PM CST SAT JAN 20 2018


...SOUTHEAST MINNESOTA...


CITY           SKY/WX    TMP DP  RH WIND       PRES   REMARKS
ROCHESTER      FAIR      40  34  79 CALM      29.87S
ROCHESTER/MAYO FAIR      40  32  73 CALM      29.87F
WINONA         FAIR      37  32  81 CALM      29.88R
AUSTIN         FAIR      41  34  75 CALM      29.86F
ALBERT LEA     FAIR      43  34  70 CALM      29.87S
DODGE CENTER   FAIR      39  34  81 CALM      29.87S
PRESTON        FAIR      42  32  67 N3        29.87S
OWATONNA       FAIR      39  34  81 CALM      29.88S
FARIBAULT      FAIR      39  32  75 CALM      29.89R
$$

...ELSEWHERE IN MINNESOTA...


CITY           SKY/WX    TMP DP  RH WIND       PRES   REMARKS
MINNEAPOLIS    PTSUNNY   41  33  73 S3        29.88R
INTNL FALLS    CLOUDY    36  27  69 W5        29.78S WCI  32
DULUTH         FAIR      41  29  62 W10       29.79R
RED WING       CLOUDY    37  28  70 CALM      29.89R
REDWOOD FALLS  CLOUDY    45  31  58 W6        29.87S
MANKATO        FAIR      41  32  70 CALM      29.88F
WORTHINGTON    CLOUDY    46  32  58 N6        29.87R
FAIRMONT       CLOUDY    43  35  73 N3        29.88S
$$

...SOUTHWEST WISCONSIN...


CITY           SKY/WX    TMP DP  RH WIND       PRES   REMARKS
LA CROSSE      FAIR      38  32  79 CALM      29.90S
PRAIRIE DU CHI FAIR      47  32  54 CALM      29.87S
BOSCOBEL       FAIR      51  33  50 CALM      29.88F
LONE ROCK      FAIR      47  34  60 CALM      29.89S
PLATTEVILLE    FAIR      46  36  68 CALM      29.88S
FORT MC COY    FAIR      43  33  68 CALM      29.90S
CAMP DOUGLAS   CLOUDY    25  25  99 CALM      29.88R
MAUSTON-NEW LI FAIR      45  32  61 CALM      29.88R
VIROQUA        FAIR      43  35  73 CALM      29.87R
WIS DELLS      FAIR      46  31  55 CALM      29.88S
$$

...ELSEWHERE IN WISCONSIN...


CITY           SKY/WX    TMP DP  RH WIND       PRES   REMARKS
MILWAUKEE      PTSUNNY   47  34  60 E10       29.89R
MADISON        FAIR      50  31  48 VRB3      29.89R
GREEN BAY      FAIR      40  30  67 CALM      29.89R
EAU CLAIRE     NOT AVBL
BLACK RVR FLS  FAIR      42  29  60 CALM      29.89R
MEDFORD        CLOUDY    37  31  79 S5        29.86R WCI  33
WAUSAU         CLOUDY    41  30  65 CALM      29.85R
WIS RAPIDS     FAIR      40  29  64 CALM      29.90R
MARSHFIELD     CLOUDY    40  31  70 CALM      29.87R
RICE LAKE      PTSUNNY   40  32  73 S6        29.87F
$$

...NORTHEAST IOWA...


CITY           SKY/WX    TMP DP  RH WIND       PRES   REMARKS
WATERLOO       FAIR      49  32  52 SE5       29.85F
DUBUQUE        FAIR      46  31  55 S3        29.88S
DECORAH        FAIR      48  34  57 CALM      29.85S
MASON CITY     SUNNY     51  33  50 E3        29.87R
CHARLES CITY   FAIR      48  34  57 CALM      29.86S
OELWEIN        FAIR      48  39  71 SE5       29.86F
$$

...ELSEWHERE IN IOWA...


CITY           SKY/WX    TMP DP  RH WIND       PRES   REMARKS
DES MOINES     MOSUNNY   45  38  76 SW10      29.87R
IOWA CITY      FAIR      45  36  70 SW9       29.91R
FORT DODGE     SUNNY     48  36  63 NE6       29.85S
MARSHALLTOWN   SUNNY     48  34  58 E3        29.85S
CEDAR RAPIDS   FAIR      49  35  58 SW6       29.87S
$$

...NORTHERN ILLINOIS...


CITY           SKY/WX    TMP DP  RH WIND       PRES   REMARKS
CHICAGO-OHARE  FAIR      45  32  60 SW8       29.91R
CHICAGO-MIDWAY FAIR      46  33  60 SW10      29.92S
MOLINE         PTSUNNY   44  37  76 SW10      29.91R
ROCKFORD       PTSUNNY   44  32  62 SW7       29.93R
PEORIA         CLOUDY    47  39  74 S5        29.94S
$$

NOTE: "FAIR" INDICATES FEW OR NO CLOUDS BELOW 12,000 FEET WITH NO
SIGNIFICANT WEATHER AND/OR OBSTRUCTIONS TO VISIBILITY. WIND
SPEEDS ARE IN MILES-PER-HOUR.




USA.gov is the U.S. government's official web portal to all federal, state and local government web resources and services.